Wind_Speed
16 15 12 11 10 9 8 9 8 8 8 8 8 8 8 8 8 9 11 10 10 10 11 11 13 13 14 15 16 16 16 17 17 17 16 15 14 13 13 12 11 12 10 8 7 7 7 9 12 12 13 16 18 19 20 22 24 24 25 25 24 23 24 23 16 15 23 25 24 29 31 29 28 29 31 32 31 30 30 28 29 31 31 32 34
18 16 14 12 11 10 9 9 9 9 8 8 9 9 9 10 11 11 12 12 11 11 12 12 12 13 15 16 17 17 18 19 18 18 18 17 14 14 14 13 12 12 11 9 7 6 7 9 10 11 12 13 15 17 19 20 21 23 24 22 23 24 24 25 22 18 19 23 23 25 27 27 28 29 31 33 33 33 33 31 30 29 27 28 32
20 17 15 13 12 11 10 9 9 9 9 9 9 8 9 12 14 13 13 11 11 12 12 13 13 14 16 17 18 18 18 17 17 18 17 15 13 14 15 14 13 13 12 10 8 7 7 7 8 9 9 11 13 16 19 20 19 20 22 23 23 25 25 24 24 22 21 23 24 23 23 24 26 29 31 33 34 35 35 34 32 30 29 30 31
22 20 17 14 12 11 10 10 10 9 10 10 10 9 11 12 11 10 10 9 10 12 14 15 15 15 16 17 18 18 18 17 18 18 17 16 15 15 15 15 14 14 15 13 9 8 7 7 8 8 9 10 13 16 19 20 19 18 20 24 25 26 26 25 25 26 25 24 24 25 25 23 25 28 29 29 31 34 35 34 32 30 32 32 30
21 20 18 15 14 13 12 11 11 10 10 10 10 10 10 10 8 8 10 11 12 13 14 15 15 17 18 18 18 18 19 20 20 18 19 21 20 18 17 16 16 16 17 15 12 10 8 8 9 9 10 11 14 17 19 20 19 19 21 24 25 26 27 28 27 27 26 25 26 28 28 25 26 29 28 27 27 28 31 32 30 28 30 31 31
18 18 19 16 16 16 13 12 12 12 12 11 10 9 8 10 11 11 11 11 11 11 13 15 16 17 18 18 19 18 18 20 21 20 21 20 19 19 19 18 17 18 19 18 15 13 11 11 11 11 11 12 14 16 19 19 19 20 21 22 24 27 28 29 28 27 26 27 28 29 29 25 25 28 28 27 26 25 26 27 27 28 29 30 32
17 17 19 18 18 18 15 14 13 12 12 12 11 10 9 10 11 11 11 10 10 12 14 16 16 15 16 18 18 17 18 21 22 20 17 15 15 17 18 19 20 21 22 21 17 16 16 15 14 13 11 11 13 15 16 18 18 19 20 21 24 26 27 27 28 27 25 25 26 26 27 26 26 27 28 27 26 27 26 22 21 26 31 34 35
19 21 21 17 18 20 17 15 15 14 13 11 11 10 10 11 11 12 13 11 11 13 14 14 14 15 17 18 17 18 21 20 17 14 12 12 14 16 17 18 21 24 24 21 18 18 19 19 17 15 13 12 13 13 14 16 17 19 20 22 25 26 26 27 26 25 24 23 24 24 24 25 25 26 28 25 21 22 26 23 21 26 32 36 38
19 22 22 17 15 18 16 15 15 15 14 13 12 11 11 12 12 13 13 12 12 14 14 13 14 16 17 17 18 19 17 11 9 11 12 12 13 16 17 16 20 23 22 20 20 22 23 22 20 19 17 16 15 14 15 15 16 18 20 23 25 26 26 26 25 24 23 22 22 23 22 21 21 22 24 23 20 20 25 27 25 27 30 33 37
18 19 20 17 14 15 15 15 15 15 14 13 12 12 12 12 13 14 14 13 12 13 13 13 13 14 15 16 17 14 10 8 10 11 10 11 11 12 14 15 17 19 21 21 23 24 23 23 24 24 22 19 16 16 17 18 17 17 19 23 27 28 27 26 25 24 23 21 21 21 19 19 20 20 22 25 23 22 25 26 25 25 25 23 27
20 18 19 18 16 16 17 17 17 16 15 13 12 12 13 13 13 14 14 13 12 13 14 14 13 12 13 15 15 11 10 12 11 9 9 10 10 9 11 14 16 18 20 22 23 25 26 26 25 22 18 18 17 17 18 19 17 16 19 26 30 30 29 28 27 27 25 23 23 22 19 19 23 23 22 25 26 24 24 24 23 23 19 13 14
22 20 19 18 18 19 19 19 19 17 15 14 13 13 14 14 14 15 15 13 12 12 14 14 13 12 13 15 14 12 14 15 12 10 10 10 9 10 13 16 17 18 19 21 24 27 28 24 19 17 18 20 22 22 22 19 16 17 23 29 31 30 31 31 30 29 28 26 25 25 23 22 25 25 23 24 26 24 21 21 22 22 20 18 16
23 21 19 18 19 21 20 20 20 18 16 14 14 14 15 15 14 15 14 13 12 13 15 14 13 13 14 15 14 15 16 15 12 11 11 10 10 12 15 18 19 20 21 22 24 26 24 20 18 21 24 25 24 24 24 20 18 20 27 31 30 30 33 34 31 30 31 29 27 27 26 25 25 26 25 24 25 23 18 20 24 23 21 22 23
24 22 20 20 20 21 22 21 19 17 16 15 14 14 15 15 15 15 14 13 14 15 16 14 13 14 14 15 16 16 15 13 12 12 12 11 12 13 15 18 20 21 22 23 24 24 24 22 22 22 22 22 22 23 22 21 22 24 28 30 31 32 33 32 32 32 31 30 29 30 31 30 29 29 30 28 27 26 21 19 22 23 21 22 25
25 23 21 21 21 22 22 21 18 17 16 15 14 15 15 14 14 15 14 15 16 16 15 13 14 15 15 14 15 14 12 11 12 13 13 13 14 15 16 17 19 20 21 21 22 24 26 26 23 19 18 19 20 19 18 21 23 24 26 30 32 34 34 32 32 34 35 34 33 35 35 33 32 33 32 30 29 29 26 24 22 21 22 24 24
24 22 21 21 22 22 21 20 19 18 16 16 16 15 14 14 14 15 15 16 18 19 17 15 16 17 15 14 13 11 9 11 13 14 13 14 17 17 17 18 19 20 19 19 21 23 25 24 19 15 15 17 17 15 15 19 21 21 25 31 33 33 34 34 35 36 39 39 39 41 41 40 39 39 39 37 33 30 27 26 24 20 18 17 18
23 22 22 22 21 21 21 20 20 19 18 17 16 16 16 18 17 15 15 17 21 22 18 17 17 15 13 13 12 11 10 13 15 15 14 15 16 15 15 17 18 18 18 18 19 21 23 22 18 15 14 13 13 14 15 18 20 20 25 30 31 32 34 38 41 42 42 42 43 44 44 44 42 43 45 44 41 35 27 22 21 21 17 10 7
23 23 23 22 21 22 22 21 20 20 20 18 16 16 17 18 17 17 17 20 22 20 17 17 17 12 10 13 13 13 14 14 15 15 16 17 16 14 14 14 15 16 17 16 17 21 22 20 15 14 13 11 11 15 16 16 17 19 23 27 28 30 34 41 47 49 48 47 46 45 40 35 35 39 42 43 42 40 33 25 22 21 16 11 8
23 24 23 22 22 21 21 22 21 20 19 17 16 17 16 15 17 20 21 21 20 19 18 18 16 12 11 12 14 14 13 11 12 15 18 18 16 13 13 13 14 16 16 15 17 20 20 17 12 10 11 11 13 16 15 13 14 18 22 25 25 28 36 43 47 49 48 47 47 46 39 26 26 30 35 38 40 41 38 31 27 23 16 14 14
23 24 23 22 22 21 20 21 21 20 19 16 15 15 15 15 16 17 17 17 18 19 20 17 14 13 13 12 12 13 12 11 13 17 19 18 14 10 10 11 13 15 15 15 17 17 15 13 12 10 10 10 13 14 11 10 13 17 21 23 25 30 39 44 46 44 42 42 43 43 38 25 19 24 27 32 36 39 39 34 30 27 20 16 16
23 21 21 21 21 21 19 18 19 20 17 13 12 13 13 11 8 5 7 12 15 18 19 15 11 11 13 11 9 12 14 14 17 20 18 14 9 6 7 10 12 14 15 15 15 13 12 12 12 12 13 14 14 12 8 8 13 16 19 23 26 32 39 41 42 42 39 39 40 39 37 31 18 16 22 27 29 32 35 35 32 29 24 20 18
20 19 20 20 19 17 14 13 15 14 12 12 12 11 11 9 8 11 13 15 17 20 20 15 9 9 11 10 12 16 15 13 18 21 16 9 6 7 9 9 11 13 14 14 14 13 12 12 12 14 16 16 14 9 6 9 14 16 18 22 25 32 36 35 38 40 38 37 39 37 35 35 31 21 12 18 24 25 28 30 31 30 27 26 23
17 17 18 18 17 15 13 13 13 11 11 12 9 8 10 10 11 13 16 17 19 18 14 9 7 10 11 9 9 11 9 9 13 16 12 8 8 10 10 10 11 12 12 13 14 14 13 12 14 16 16 13 12 9 8 11 15 16 18 20 24 31 34 32 35 39 38 37 38 37 37 37 36 34 27 15 13 22 26 27 27 29 29 29 28
10 9 10 12 14 13 12 10 10 10 10 9 8 8 10 10 11 13 16 18 17 13 8 6 7 10 13 11 6 3 3 6 7 7 7 8 10 11 11 12 12 12 11 12 13 13 13 13 14 15 13 10 9 8 9 13 17 18 18 18 22 29 32 31 33 38 38 37 37 36 38 39 38 37 37 30 17 13 22 26 26 29 31 31 31
11 10 12 12 8 8 9 7 7 8 8 7 7 7 9 12 14 15 16 15 11 6 5 6 6 7 8 7 4 1 2 4 2 2 5 10 12 12 11 11 11 12 13 14 13 12 12 14 15 14 12 9 8 8 12 17 18 16 16 17 20 25 28 30 32 34 35 36 37 35 36 40 42 40 37 33 24 12 12 19 21 24 27 29 30
13 13 13 11 6 4 5 6 6 6 6 6 8 10 14 16 15 14 13 11 6 3 4 6 7 5 3 2 1 2 4 3 0 1 7 11 13 13 12 11 11 12 12 13 12 11 12 14 14 13 11 9 7 8 13 18 17 15 17 19 20 22 25 27 29 30 30 33 35 36 36 39 41 41 39 36 32 21 7 9 13 16 21 24 24
11 11 11 11 11 8 6 6 5 6 7 9 12 13 12 11 10 9 6 5 4 5 6 7 7 4 1 2 1 2 3 2 1 5 10 12 12 13 13 13 13 12 11 13 13 12 12 11 11 10 10 10 9 9 12 17 19 19 21 23 23 23 24 25 27 27 28 30 32 36 39 40 40 41 39 36 35 32 19 6 2 8 14 20 21
7 11 12 10 6 2 4 4 4 6 7 8 9 7 4 5 7 4 2 4 6 6 7 7 7 6 2 3 3 3 2 2 4 9 12 11 10 13 14 15 16 16 14 14 14 12 11 9 8 11 11 10 11 11 12 15 18 20 22 23 24 26 26 27 28 28 29 29 30 33 38 39 39 40 39 35 35 36 31 24 19 14 6 4 8
7 10 9 5 4 5 5 5 8 9 6 2 0 1 2 2 3 1 2 4 6 6 6 5 5 7 3 1 0 1 1 2 6 10 11 9 8 11 14 15 16 16 15 14 13 12 10 8 9 11 11 10 11 12 12 13 15 19 22 23 24 26 27 27 28 29 30 30 29 30 33 35 36 36 37 36 35 35 34 32 29 26 21 17 15
6 7 6 5 5 7 8 6 7 6 3 2 4 4 3 3 2 1 2 4 6 7 6 4 3 3 3 5 2 2 2 3 6 8 9 7 6 9 12 14 14 13 13 13 12 10 9 9 9 10 10 9 10 11 12 13 14 17 20 21 22 25 26 26 27 28 28 29 29 29 29 29 31 33 34 33 34 35 34 31 28 27 26 23 22
7 7 6 5 4 6 7 6 4 4 5 5 7 8 7 6 4 3 3 4 5 6 6 6 4 3 6 7 4 4 4 4 6 7 8 6 5 7 10 13 13 12 11 10 9 9 9 9 8 9 9 9 10 10 11 12 14 16 18 19 20 23 24 25 26 27 27 27 28 30 29 27 27 29 31 32 32 33 33 31 29 28 27 24 22
8 8 7 4 4 4 4 4 4 6 8 6 9 11 9 8 6 4 4 4 4 5 6 7 7 7 6 6 5 5 7 8 9 9 8 6 4 4 7 10 14 14 11 9 9 9 9 9 9 9 9 9 10 10 11 12 13 14 16 18 19 21 23 24 24 24 24 25 26 27 28 28 26 26 28 30 30 30 30 30 29 28 26 25 24
9 9 8 4 3 4 5 5 7 9 8 4 4 7 8 9 9 7 4 4 4 4 5 6 7 8 8 7 7 7 9 11 10 10 9 6 4 3 3 5 9 13 13 11 10 10 10 10 10 10 10 10 11 11 11 12 13 13 14 15 16 18 21 22 23 23 23 24 25 25 26 27 28 27 27 28 29 28 27 27 27 26 25 23 21
9 8 7 5 5 7 8 7 6 4 3 3 3 4 3 5 10 11 8 5 4 4 4 4 5 5 7 9 9 10 11 11 10 9 8 6 5 5 4 3 3 9 12 12 11 11 10 10 11 11 11 11 11 12 12 13 14 14 14 14 15 17 19 20 22 24 24 23 25 26 26 26 27 28 26 26 28 27 27 27 26 25 23 21 19
9 9 8 8 8 8 7 6 5 4 4 3 5 5 3 3 7 10 8 7 6 5 4 3 2 4 6 7 8 9 10 10 10 11 10 7 4 4 4 2 3 8 11 12 12 11 10 10 10 10 11 11 13 13 12 13 14 14 14 15 16 17 19 20 21 23 23 23 24 26 27 26 28 28 26 25 25 25 24 25 26 24 23 21 18
10 7 6 7 5 2 3 5 5 7 9 8 6 6 5 5 4 5 5 5 5 5 6 6 3 3 4 5 6 6 7 8 11 13 13 11 8 7 7 6 7 9 10 10 10 10 9 9 9 9 10 11 13 13 12 12 14 14 15 16 17 18 18 20 21 21 21 21 22 24 26 27 27 28 27 25 24 24 23 24 24 24 23 21 19
7 5 5 5 2 2 6 7 7 9 11 9 8 8 7 5 4 3 4 4 4 5 7 7 5 4 3 2 3 4 3 3 6 9 11 11 10 10 10 9 8 8 8 8 8 8 7 7 8 8 8 9 10 11 11 12 14 16 16 16 17 18 18 19 20 20 20 20 21 23 24 25 25 26 26 25 24 24 25 24 23 23 23 23 22
3 3 5 7 5 4 5 5 7 10 10 9 9 9 7 6 4 4 3 3 4 5 6 5 3 2 1 2 5 5 5 4 4 3 3 7 9 8 8 7 7 7 7 7 7 7 6 6 6 7 7 8 9 10 11 11 13 15 17 17 16 17 17 18 20 21 20 19 21 23 23 23 23 24 24 23 23 23 24 24 24 23 23 23 23
2 2 4 5 5 7 7 6 6 8 9 8 7 7 6 5 5 4 4 6 6 5 3 3 2 1 4 6 8 7 6 5 6 5 1 5 7 6 5 6 5 5 6 6 6 6 6 6 7 7 8 9 9 9 10 11 12 14 15 16 17 17 17 18 20 22 21 19 20 22 23 23 22 22 22 22 22 22 23 23 24 24 22 21 22
7 6 4 3 3 8 11 10 9 8 9 9 7 6 6 6 6 6 7 8 7 4 3 3 2 5 6 5 7 9 8 5 2 3 4 5 5 4 5 5 4 5 5 5 6 6 5 6 7 8 8 9 10 10 10 11 12 13 14 15 16 16 17 17 18 20 20 20 20 21 23 23 22 21 22 22 21 21 22 22 22 23 22 21 22
10 10 7 4 3 6 9 9 9 8 8 8 7 7 7 7 6 6 7 7 6 5 5 4 1 4 4 3 3 6 8 5 2 3 3 3 4 4 4 4 4 5 5 5 5 6 5 5 6 7 8 8 9 10 10 11 12 13 13 14 15 15 16 16 17 18 19 19 19 20 22 22 21 21 22 22 20 20 21 21 21 22 21 21 22
8 10 9 7 6 6 6 7 8 8 8 8 7 6 5 5 5 4 5 6 6 7 5 4 5 3 2 1 2 2 4 4 2 2 2 2 3 2 2 3 3 4 4 5 5 5 5 5 6 7 8 9 9 10 10 11 12 12 13 13 14 15 15 16 16 18 18 18 19 20 21 21 20 21 22 22 20 20 20 20 20 21 21 20 21
5 8 10 9 7 5 5 7 8 7 7 7 7 5 4 4 5 4 5 5 7 7 4 6 8 5 3 4 4 2 2 2 2 2 1 0 1 2 2 1 0 1 1 3 5 5 5 5 6 7 7 8 9 10 10 11 12 12 13 13 13 15 16 15 15 17 19 19 19 19 20 20 20 20 21 21 20 20 20 20 20 20 20 19 19
4 5 7 6 6 6 7 7 6 6 6 6 6 6 5 5 5 5 6 6 7 6 3 9 9 5 3 3 3 0 2 2 2 2 3 4 5 5 3 2 2 2 1 3 4 5 5 5 5 6 7 8 8 9 9 10 11 12 13 13 13 14 16 16 14 16 19 19 18 18 19 20 20 20 20 20 20 20 20 20 20 20 20 19 19
2 3 4 6 7 7 8 7 6 7 6 5 6 7 6 6 7 7 6 5 5 5 2 7 8 4 2 3 2 3 3 3 3 4 5 5 6 6 5 2 0 1 2 3 4 5 5 5 5 6 7 7 8 9 9 10 10 11 12 13 13 14 16 15 12 14 16 17 17 17 18 19 19 20 20 20 20 19 19 20 20 19 20 20 19
3 3 4 5 6 7 7 7 8 9 8 7 7 8 7 7 7 7 7 5 3 2 2 3 4 3 2 4 4 5 6 6 5 5 5 5 7 8 5 1 3 5 4 3 3 3 4 5 5 6 6 7 8 8 9 9 9 10 12 13 12 13 14 13 11 12 14 15 16 17 18 18 18 19 19 19 19 19 19 19 19 18 19 20 20
2 2 2 4 6 7 7 6 7 8 8 7 8 9 8 8 7 7 7 5 3 2 4 6 6 6 5 6 7 8 8 8 7 5 5 7 8 5 1 3 3 2 2 2 2 3 4 4 4 5 5 6 7 7 8 9 8 9 11 12 12 12 13 12 11 12 13 14 15 16 17 16 16 17 18 19 19 19 19 19 19 18 18 19 19
3 3 4 4 6 7 7 8 9 9 9 9 10 10 10 9 9 9 8 7 7 7 6 5 5 5 5 6 8 7 6 6 6 5 6 7 5 2 3 3 1 1 3 3 3 3 3 4 4 4 5 5 5 7 8 8 8 9 12 12 11 11 11 11 11 12 13 14 15 16 16 15 15 16 17 19 19 18 19 20 20 19 18 18 19
3 4 6 6 7 7 7 7 9 9 9 8 9 9 10 9 10 10 11 10 10 8 7 5 6 6 7 7 7 6 6 6 6 5 5 4 3 3 3 2 2 2 3 4 3 3 3 4 4 4 4 4 5 6 6 6 9 11 12 12 10 9 8 9 9 11 13 13 14 15 15 15 15 15 16 18 18 18 18 19 20 19 18 18 19
6 6 7 8 8 9 9 10 10 11 11 11 10 10 11 11 11 11 12 11 9 8 8 9 9 10 9 9 8 7 7 7 6 5 5 4 4 4 4 4 3 3 3 3 3 3 3 3 3 4 4 4 5 6 5 6 10 11 10 10 10 8 7 7 8 10 12 13 15 16 15 14 14 14 15 16 18 18 18 19 19 18 18 18 18
10 9 10 10 9 9 9 10 10 9 9 10 9 9 11 11 10 10 9 8 7 8 9 9 10 10 10 10 9 8 7 6 5 5 5 5 5 5 5 5 4 4 3 3 3 3 3 3 3 4 3 4 6 6 4 8 12 9 7 8 11 10 7 6 7 9 11 13 14 15 14 13 13 14 14 15 16 17 17 18 18 17 17 17 17
Wind_Direction
179 179 184 185 181 180 184 192 197 201 205 208 216 231 242 253 265 266 262 263 266 271 274 276 280 283 284 285 286 289 292 295 296 294 290 284 281 284 284 283 290 295 294 293 306 318 318 321 324 326 332 336 335 333 329 326 323 321 324 322 316 316 311 299 290 284 279 274 268 270 269 264 260 260 260 260 261 259 252 248 246 242 244 249 249
178 179 184 183 183 186 190 196 199 204 210 212 222 234 240 250 260 256 252 259 264 265 268 273 278 281 283 284 285 287 290 293 296 294 292 288 282 280 281 282 287 290 288 291 299 307 308 314 322 326 331 334 331 328 325 322 320 317 321 324 319 318 319 313 304 295 286 281 274 272 269 259 251 251 251 252 253 253 249 246 243 241 243 249 252
178 179 183 186 188 188 191 199 204 208 211 216 228 239 248 256 257 247 245 256 265 270 273 275 275 276 281 284 284 286 287 286 289 290 289 293 291 284 282 283 284 284 285 290 292 293 300 307 312 316 322 324 323 326 325 319 318 318 319 322 322 319 320 319 313 306 297 287 278 273 269 257 248 246 246 248 249 249 248 246 243 244 248 251 254
176 179 182 186 191 188 190 200 207 212 217 221 226 235 250 258 255 245 249 263 273 278 276 269 270 275 278 280 281 286 288 286 289 289 282 284 289 287 286 285 284 284 284 284 283 285 287 290 297 300 302 309 317 325 328 323 320 318 318 321 324 323 323 321 318 315 308 295 282 273 268 260 254 249 245 245 244 243 245 246 244 247 250 248 248
163 175 182 186 192 188 189 200 208 215 220 227 233 239 254 272 279 275 274 274 270 272 275 274 279 282 280 281 283 286 288 289 292 290 282 281 285 287 289 286 280 281 281 280 280 283 280 277 285 290 292 299 311 322 327 325 323 325 326 326 328 328 327 323 318 316 313 304 292 279 269 261 257 253 246 241 238 237 241 243 241 247 250 244 241
160 176 186 192 193 187 188 199 208 217 219 225 237 245 260 273 273 273 277 278 273 273 280 280 278 280 282 286 286 286 290 292 290 286 280 279 282 285 288 287 281 278 279 281 279 278 276 271 274 280 286 292 301 313 322 323 324 332 335 332 332 333 330 325 319 316 314 309 300 285 270 261 259 257 250 241 233 227 228 233 238 248 251 240 235
179 189 194 198 193 184 187 198 207 219 222 224 231 236 248 259 263 274 283 286 282 279 279 278 278 285 288 289 290 291 294 295 290 283 277 278 281 280 281 285 284 280 281 281 275 272 275 270 267 272 274 282 293 304 315 318 320 329 334 333 332 332 329 325 320 316 314 311 306 292 274 264 263 261 255 246 234 226 224 222 228 240 242 234 230
189 194 198 201 191 183 186 197 205 215 220 224 230 234 243 251 255 266 271 271 274 277 279 281 288 294 294 292 291 289 289 290 288 283 283 291 293 289 287 284 275 273 279 281 274 275 277 269 263 264 261 269 288 300 307 310 310 314 323 328 329 327 325 323 319 315 311 308 306 301 287 274 267 264 259 247 229 222 222 216 215 225 229 228 228
192 195 194 194 190 182 185 197 205 211 217 222 228 233 241 247 249 256 259 259 266 273 277 282 288 291 289 287 286 287 295 308 311 305 308 318 312 296 287 277 268 272 282 283 278 278 276 269 263 259 258 267 287 297 299 304 302 299 308 320 323 321 319 318 315 312 308 306 304 304 299 285 272 270 265 249 227 216 218 217 217 225 227 225 225
193 191 183 188 195 185 187 202 207 210 215 219 225 232 239 243 247 254 256 256 260 269 273 276 281 285 286 288 290 296 315 337 332 321 319 326 321 298 285 283 284 289 293 289 284 280 275 270 264 260 259 264 278 288 291 297 296 290 300 315 317 314 312 310 310 308 304 301 300 299 297 289 280 274 268 261 249 230 220 216 216 224 232 232 227
192 187 181 190 196 188 192 203 208 211 214 219 227 234 238 244 250 255 257 257 261 269 271 269 271 279 287 292 292 293 298 303 309 315 308 302 302 300 299 299 296 296 298 297 293 288 283 277 270 268 268 267 275 286 292 297 295 288 301 315 315 312 308 304 303 303 301 297 295 293 289 288 286 280 271 266 259 243 226 219 214 213 221 233 233
188 187 187 193 189 187 196 203 206 210 211 218 229 235 242 248 254 259 261 259 261 265 267 265 266 271 277 277 276 284 298 298 293 296 301 294 288 297 306 305 300 298 300 303 302 298 294 289 287 294 291 284 286 291 293 298 297 294 309 319 319 316 315 310 303 299 297 293 289 288 285 282 283 282 275 269 263 254 235 223 222 217 213 221 226
186 187 190 193 187 189 200 204 205 208 210 217 229 238 246 250 253 261 264 264 264 262 261 260 261 268 271 269 271 285 298 299 290 291 298 296 294 303 307 306 303 299 297 303 307 304 299 296 298 298 289 283 287 290 290 296 300 304 318 324 321 320 322 320 313 305 298 291 284 283 282 279 278 278 276 273 271 267 247 227 227 222 213 222 225
185 188 189 190 188 193 202 205 207 210 213 217 227 239 250 254 258 264 265 265 263 260 257 255 261 271 271 269 276 286 292 293 291 295 301 305 306 307 305 302 298 294 295 302 305 304 307 305 297 294 289 284 288 290 289 294 300 308 320 324 320 320 323 321 317 311 305 295 285 282 280 276 273 274 274 272 268 269 263 246 237 229 220 226 230
177 182 183 187 192 197 201 203 208 215 218 220 226 238 246 250 258 265 267 267 267 265 261 258 264 270 268 269 279 288 289 285 286 292 303 314 315 309 301 295 291 290 295 302 303 307 318 315 300 293 297 294 295 294 287 293 304 311 318 321 319 320 320 319 317 315 310 301 291 284 280 274 269 268 269 266 263 264 263 258 256 248 230 223 224
168 177 184 189 194 197 200 203 209 216 221 222 226 236 241 244 255 265 268 270 271 269 264 259 263 267 269 271 271 272 278 281 282 286 297 313 317 310 298 289 286 288 293 301 307 313 319 314 297 291 305 305 301 297 291 301 314 316 314 317 319 319 320 322 322 319 313 306 297 289 282 273 265 260 258 257 259 263 264 261 259 251 231 218 214
170 182 190 192 195 199 202 205 210 217 220 222 228 238 240 239 242 247 255 261 264 262 259 261 266 268 276 282 266 253 268 279 276 275 288 311 316 308 299 290 283 287 295 301 310 317 318 312 294 289 308 314 306 306 310 316 320 318 315 316 317 318 323 329 329 325 319 313 307 302 290 275 263 256 252 251 251 254 259 259 250 234 218 207 205
179 189 194 196 200 202 203 208 213 217 217 220 233 242 240 236 236 237 241 249 255 258 260 270 278 273 277 289 282 272 278 279 271 270 285 306 312 304 301 292 278 285 299 302 305 312 320 324 311 301 316 323 313 316 321 321 322 324 322 318 315 320 328 333 332 330 327 324 323 321 309 283 260 252 248 244 243 243 243 244 243 235 216 196 199
189 197 199 202 206 206 209 212 213 215 218 224 240 248 245 244 245 243 241 243 250 258 262 271 280 273 265 279 288 290 291 285 281 284 290 301 306 300 297 290 281 289 296 293 295 303 316 331 332 321 323 317 308 313 318 320 330 336 330 321 318 326 334 334 332 329 328 329 330 332 328 300 260 249 247 241 235 234 235 234 235 235 223 199 198
197 201 203 207 209 211 215 216 214 217 221 229 245 256 259 258 251 241 238 241 248 258 263 264 267 263 260 267 283 302 314 306 295 295 296 296 296 295 299 298 294 295 294 290 294 298 309 328 335 332 330 318 309 311 312 323 341 345 338 328 324 330 335 335 334 332 330 332 334 338 342 327 271 248 248 243 233 229 230 230 227 228 226 207 199
197 201 206 212 215 214 214 218 220 219 221 232 253 266 269 270 267 262 263 260 262 272 278 279 277 278 277 280 309 343 346 322 304 302 301 298 297 309 322 312 296 290 289 290 290 290 304 327 335 333 330 325 322 317 309 329 346 346 338 331 332 338 338 335 337 337 336 340 343 345 350 350 324 267 244 235 228 225 227 228 224 224 225 217 209
200 210 215 217 215 208 210 226 229 225 233 241 245 258 269 276 301 313 302 287 281 285 292 298 312 320 314 319 345 355 351 328 310 307 306 306 312 323 328 317 299 292 292 291 289 291 305 320 327 328 326 327 329 322 301 323 337 335 332 337 347 351 346 340 341 342 342 348 353 353 355 360 357 342 290 232 216 214 221 225 222 219 220 221 220
207 218 220 221 220 214 219 230 224 221 236 240 240 265 281 289 303 301 288 278 276 285 300 308 308 309 307 307 325 332 324 303 298 301 306 319 328 328 324 315 308 305 300 293 291 295 304 313 322 328 330 331 333 323 307 323 332 327 327 341 358 1 353 346 347 349 349 353 358 359 360 2 2 357 349 322 245 216 213 217 220 219 220 223 224
240 237 243 249 238 217 208 206 202 209 229 244 261 272 275 284 290 283 276 273 273 282 295 291 285 294 289 277 272 295 286 274 284 301 318 324 324 321 312 307 312 314 304 294 293 298 309 320 327 331 329 325 326 326 327 334 334 329 331 345 4 6 357 349 349 352 353 357 1 1 360 2 2 358 355 351 330 255 220 214 216 218 221 225 226
291 286 282 277 246 186 175 188 212 230 233 235 248 262 273 276 272 271 278 283 284 289 296 290 288 282 264 250 238 237 283 288 298 341 325 320 321 320 316 322 332 329 315 306 301 305 319 329 333 333 330 323 320 329 339 339 335 334 343 355 5 7 359 351 352 355 356 358 1 359 358 1 0 357 358 4 2 330 246 222 218 217 220 224 226
275 274 274 272 258 209 200 217 225 220 202 200 224 250 262 265 269 279 287 286 286 304 318 319 314 294 258 242 294 305 313 327 36 303 319 325 328 333 341 347 344 335 330 326 321 322 331 336 338 342 351 359 356 345 345 346 348 357 5 7 8 7 0 354 355 358 357 357 360 359 359 0 1 360 3 12 17 11 333 241 234 232 225 221 221
247 260 263 260 262 259 232 213 203 195 205 227 244 250 250 260 287 305 303 295 311 325 326 334 334 318 240 152 219 293 329 350 330 329 335 335 337 345 354 355 350 350 352 344 337 334 335 338 350 6 19 23 17 0 349 353 3 13 17 16 15 10 4 1 3 2 358 356 358 1 2 3 4 4 5 11 18 20 24 40 290 269 246 230 221
246 267 262 248 242 201 164 181 214 232 244 256 267 271 272 296 315 339 13 346 344 344 338 341 338 318 267 185 220 265 276 305 328 340 340 337 345 355 358 358 359 1 358 344 338 340 338 339 6 21 18 15 14 5 354 356 4 11 15 16 15 12 10 10 9 5 360 355 355 0 4 5 5 5 5 9 14 19 27 43 47 31 5 238 222
250 259 249 219 169 147 160 212 240 242 244 237 234 272 265 276 298 3 16 341 348 357 355 359 348 327 322 133 211 259 153 324 330 338 336 337 358 9 7 5 1 358 355 346 337 341 346 354 17 20 9 6 11 4 354 354 358 2 8 12 11 11 11 10 5 1 359 357 356 359 4 5 4 5 7 9 12 15 24 36 44 42 43 50 46
227 233 224 219 207 180 182 221 244 242 238 144 140 148 138 132 136 98 41 7 5 5 6 17 7 354 92 114 94 61 78 356 338 343 341 345 16 25 19 14 4 352 350 348 343 351 4 11 18 16 6 5 10 4 356 356 358 357 360 3 5 6 6 5 2 360 359 360 1 2 4 4 4 5 7 8 10 15 22 31 40 45 46 48 47
220 230 225 220 189 169 194 241 273 284 274 233 182 164 143 121 108 88 61 33 17 22 36 47 44 69 114 118 89 50 44 19 11 11 2 6 38 37 29 28 18 0 350 350 359 12 17 16 17 14 7 7 11 6 0 0 360 356 354 356 359 1 1 0 360 358 357 360 4 7 6 4 3 5 8 10 11 14 19 25 32 41 44 45 46
216 229 229 200 131 144 217 266 285 277 268 230 174 167 160 138 117 101 85 65 55 61 64 61 55 60 84 105 96 62 42 31 25 19 17 28 41 31 34 36 28 18 8 9 24 29 22 21 23 14 7 7 7 5 5 3 359 356 354 354 356 358 359 358 358 358 358 360 4 8 7 5 6 7 10 13 14 14 16 20 26 31 36 39 41
219 231 234 212 152 170 211 244 262 269 274 259 191 187 183 164 148 139 123 99 93 94 89 83 74 62 60 74 82 65 46 37 28 18 17 18 7 7 24 33 35 36 31 28 36 38 28 26 26 16 10 8 3 2 5 2 357 354 354 353 352 353 356 357 358 1 3 3 5 8 8 7 8 10 11 15 17 15 13 15 20 24 27 30 33
222 239 240 230 224 220 217 223 240 265 309 308 259 234 213 170 155 150 144 136 138 131 107 96 92 81 77 76 70 61 54 48 38 24 10 345 317 317 317 313 30 49 44 39 41 41 34 31 29 22 17 13 8 6 6 4 360 356 354 354 351 350 354 359 1 4 6 6 8 11 10 9 10 11 11 15 18 17 12 10 13 17 20 21 23
225 242 239 236 250 251 224 198 184 164 153 184 221 219 195 154 160 165 166 165 166 168 162 146 114 94 97 88 69 61 63 61 51 37 25 8 335 316 313 330 60 58 51 47 45 42 38 35 30 24 22 21 19 15 8 3 1 357 354 354 352 351 355 0 3 5 6 7 8 10 10 11 13 12 11 14 18 17 12 9 9 12 16 17 18
232 241 223 223 256 302 122 141 155 161 160 163 171 166 152 154 170 178 180 181 180 174 167 161 151 122 110 90 61 53 63 71 68 58 46 39 36 32 36 56 67 64 56 49 43 39 36 31 26 22 17 16 17 15 8 2 0 359 357 357 356 356 358 360 1 4 6 6 7 8 9 11 12 12 11 12 14 15 14 12 11 11 13 15 18
236 230 197 200 222 80 101 114 124 135 139 140 140 139 140 150 162 167 171 175 174 167 162 158 160 167 156 94 26 3 2 53 83 74 55 46 46 49 52 57 62 65 61 49 38 34 27 19 16 14 10 8 9 8 3 359 359 359 359 359 359 1 1 359 360 3 6 6 6 7 8 8 10 12 11 10 10 12 13 13 13 13 15 16 16
209 196 188 187 180 151 131 125 130 136 135 134 142 149 150 153 168 184 180 174 186 187 176 173 184 191 152 9 351 332 315 293 263 259 26 47 52 55 59 61 59 60 56 43 34 29 19 10 8 10 11 10 8 5 2 359 358 359 358 358 359 2 3 1 1 3 6 6 7 7 6 6 8 10 11 10 9 10 11 12 12 12 15 18 15
171 162 182 189 167 147 151 163 161 151 144 143 154 168 175 180 197 203 180 185 206 209 198 222 264 22 31 4 349 340 324 297 275 271 324 61 60 55 59 61 55 48 45 38 32 25 20 14 13 16 19 16 10 8 7 4 2 1 359 358 359 3 5 4 3 3 4 4 4 5 5 5 6 8 8 10 11 10 9 11 12 12 12 14 14
186 176 176 204 171 142 150 169 181 172 165 169 178 183 179 181 195 200 193 202 216 218 218 252 326 37 29 352 344 350 345 339 7 31 34 45 53 56 57 51 38 33 35 32 26 22 21 19 16 18 22 19 13 11 11 10 8 5 3 1 1 2 4 5 4 4 3 2 4 6 5 4 5 6 6 8 11 13 12 11 12 13 13 12 13
185 190 189 206 197 160 158 170 175 169 173 184 186 180 176 177 184 201 212 218 221 218 220 222 111 48 16 335 353 1 350 349 24 34 18 29 50 59 62 53 38 29 24 21 18 16 15 17 20 21 22 20 16 13 13 15 15 9 5 5 2 1 2 3 2 3 2 360 1 4 4 4 7 6 5 5 8 11 15 15 13 13 14 14 14
181 192 194 197 202 201 194 178 162 162 178 186 175 168 178 178 172 191 219 227 229 236 232 181 142 117 31 49 104 46 2 4 359 323 338 46 57 59 74 67 49 35 27 19 9 2 4 13 24 29 28 24 23 21 20 19 18 13 9 7 5 3 2 0 0 3 2 358 358 1 1 3 7 7 6 6 6 8 12 16 15 14 14 14 15
173 190 202 207 208 203 173 153 158 176 192 187 172 168 181 176 173 198 226 235 243 248 218 146 138 129 93 97 109 85 2 342 301 275 265 189 221 209 172 122 275 218 93 42 10 356 3 17 28 33 35 33 30 29 27 25 22 19 14 9 6 5 3 1 3 6 1 353 353 358 360 2 6 7 6 6 7 8 10 12 14 15 15 14 14
185 195 199 189 172 150 135 142 174 197 185 170 178 194 199 188 193 216 230 235 248 254 183 136 135 133 116 119 123 154 272 262 261 256 250 253 251 234 205 204 246 233 132 60 27 10 11 24 36 39 40 40 37 34 34 33 28 23 20 16 11 7 4 3 9 11 2 351 349 355 359 1 4 5 5 6 8 9 10 10 10 12 13 12 12
171 163 153 143 143 145 144 158 189 198 184 183 206 217 216 208 212 225 228 224 239 255 178 134 133 139 165 180 200 238 238 227 236 246 245 253 262 255 242 237 245 110 88 57 39 33 29 34 44 45 42 44 44 40 40 40 33 23 19 19 19 15 8 6 13 18 9 358 354 356 357 359 3 4 3 5 8 10 10 10 10 9 11 11 9
118 125 144 154 160 166 170 180 191 195 202 219 225 220 216 212 211 218 222 215 218 259 252 171 157 161 187 205 214 223 223 220 225 230 226 233 253 255 246 207 70 77 81 61 44 53 52 46 49 50 47 48 50 46 45 45 37 22 15 16 21 21 15 12 19 24 14 4 3 3 358 356 2 4 2 2 7 9 9 9 9 10 13 13 10
160 157 184 183 177 176 182 193 198 198 208 223 224 218 216 211 202 203 206 196 181 217 268 261 236 213 209 215 215 215 217 220 222 224 216 218 230 239 193 95 81 87 98 89 72 70 66 60 60 59 54 54 56 55 53 50 39 22 14 14 17 20 19 20 27 29 20 12 12 12 4 357 359 3 3 2 4 7 7 6 5 8 14 15 12
225 240 247 227 203 194 194 198 203 207 214 222 223 218 214 210 204 199 194 190 194 205 229 252 244 224 225 232 228 222 222 221 221 226 218 202 193 161 95 89 119 174 139 122 113 95 80 73 67 63 62 64 66 66 63 52 33 18 16 16 16 17 20 24 29 30 26 23 22 19 12 4 0 2 5 5 3 4 5 4 1 5 12 14 13
260 272 274 260 239 230 221 211 210 215 220 224 222 215 209 210 211 204 197 198 207 213 222 241 249 245 244 240 229 222 221 219 219 224 218 191 166 148 134 142 181 181 144 134 135 122 107 98 85 75 72 71 77 84 76 41 18 14 16 16 16 20 25 29 33 33 29 27 27 25 19 8 2 3 7 7 5 4 4 2 0 4 10 12 12
251 255 262 259 254 246 232 220 219 224 228 229 226 214 205 208 215 215 208 205 204 206 214 229 238 237 232 226 220 216 216 213 213 213 202 181 169 164 160 163 180 181 157 148 147 131 117 110 98 91 87 81 89 101 88 23 10 14 17 16 17 25 33 39 45 42 34 29 29 27 20 9 5 8 10 8 6 4 3 2 2 5 9 10 11
258 245 233 234 255 273 259 236 231 240 245 243 238 226 213 209 214 221 219 210 202 201 208 219 229 232 227 218 211 211 210 205 205 205 194 179 176 177 175 177 185 185 175 168 162 148 138 127 107 99 100 97 99 103 69 17 12 15 19 20 23 26 29 40 51 48 38 34 33 28 19 10 9 11 11 9 7 5 4 3 3 6 9 9 10
Height
800 802 804 806 807 808 810 811 812 813 813 814 815 816 817 817 817 817 816 816 816 816 816 815 815 815 815 814 813 813 812 811 811 810 809 809 808 808 807 807 807 806 805 804 803 803 802 801 801 801 800 799 797 796 795 793 791 788 787 784 781 780 778 776 772 763 759 759 757 753 752 752 751 751 751 749 749 750 750 752 754 755 756 758 760
798 800 802 804 805 806 808 810 811 812 812 813 814 815 816 815 815 815 814 815 815 814 814 814 814 814 813 812 812 811 811 810 810 809 808 807 806 806 806 806 805 805 804 803 801 801 800 799 799 799 798 797 796 795 793 791 789 787 785 783 780 778 776 774 770 764 757 755 753 749 748 748 746 745 746 745 745 745 746 748 749 751 752 753 754
795 798 800 802 803 804 806 808 809 810 811 812 813 814 814 813 812 812 813 813 813 813 813 812 812 812 812 811 810 809 809 808 807 807 806 805 805 804 804 804 804 803 802 801 800 799 798 798 797 797 796 796 794 793 791 789 787 785 782 781 779 776 774 771 768 763 756 752 749 747 745 744 742 740 740 741 741 741 741 743 745 747 748 748 748
792 795 798 800 802 803 804 806 807 808 809 810 811 812 812 810 810 811 811 811 811 811 811 811 811 810 810 809 808 808 807 805 805 804 803 803 803 802 802 802 802 801 800 799 798 797 797 796 796 795 795 794 793 792 790 788 785 783 780 779 777 775 772 769 766 762 756 750 746 743 741 740 740 738 737 737 737 738 738 738 740 742 743 743 743
790 793 795 797 799 800 802 804 805 806 808 809 809 809 809 809 809 809 809 809 809 809 809 809 809 809 808 808 807 806 805 804 802 802 801 801 800 800 800 800 799 798 798 797 796 796 795 795 795 794 794 794 793 791 789 787 784 781 778 776 774 772 769 767 764 760 755 749 744 740 738 737 736 735 734 733 733 734 736 736 736 736 737 738 739
788 791 793 794 796 797 799 801 803 805 806 807 808 808 808 808 807 807 807 807 807 807 807 807 807 806 806 806 805 804 803 802 801 799 799 798 798 798 798 798 797 796 796 795 794 794 794 794 793 793 793 793 792 790 788 786 782 779 777 774 772 769 766 764 761 757 752 748 743 738 735 733 732 731 730 729 729 730 733 734 732 732 733 733 734
785 788 790 791 793 794 796 798 801 803 804 805 806 806 807 807 806 805 805 805 805 806 805 805 804 804 804 803 803 802 801 801 799 798 797 797 798 797 797 797 796 795 794 793 793 793 792 792 791 790 790 790 790 788 785 783 781 778 776 773 770 767 764 760 757 754 750 746 742 738 733 730 729 728 727 725 725 726 728 729 728 728 729 729 729
781 784 787 789 790 791 793 797 799 801 803 803 804 805 805 805 804 804 803 803 804 804 803 803 803 802 802 801 801 800 799 798 797 796 797 797 797 796 795 795 795 794 793 792 791 791 790 789 788 787 787 786 785 784 782 780 778 776 774 771 768 765 762 758 754 751 748 744 740 736 732 728 726 725 724 722 721 721 722 724 724 724 725 725 724
778 781 784 787 788 789 792 795 798 800 801 801 802 802 802 802 802 801 801 801 801 801 801 801 801 801 800 799 799 798 798 797 796 796 796 795 795 794 794 794 794 793 791 790 789 788 787 786 785 784 783 782 782 780 777 776 774 773 771 769 767 764 760 756 752 749 746 742 738 735 731 726 723 722 721 718 716 716 718 719 719 720 721 720 719
776 779 782 784 786 787 791 795 797 799 799 800 800 799 799 799 798 798 798 798 799 799 799 799 798 798 798 797 797 797 796 795 795 794 794 793 793 793 793 792 792 791 789 787 786 784 783 782 781 780 780 779 778 776 773 772 771 770 769 767 765 762 758 755 751 747 743 739 736 733 729 724 721 719 718 716 714 713 714 714 714 715 718 718 717
775 779 780 782 784 786 790 794 796 797 797 797 797 796 796 796 795 796 796 796 797 797 797 796 796 796 795 795 795 794 793 792 792 792 791 791 791 791 791 790 789 788 787 785 784 782 780 779 778 777 778 778 777 774 771 770 768 767 766 764 762 759 756 752 748 744 741 737 733 731 728 722 719 717 715 713 712 710 709 710 709 710 713 716 716
775 777 778 779 782 785 789 792 793 794 794 794 794 793 793 793 794 794 794 794 795 795 795 794 793 793 793 792 792 791 790 790 790 790 790 789 789 789 788 787 786 785 784 782 781 779 777 777 776 776 777 777 777 774 770 768 766 765 763 760 758 756 753 750 746 742 738 734 730 727 724 720 716 714 712 710 708 706 706 708 707 706 707 710 711
773 774 775 777 780 784 788 789 790 791 790 790 790 790 791 792 792 793 793 793 793 792 792 791 791 791 790 789 789 788 788 788 788 788 788 787 787 787 785 784 783 782 781 779 778 776 775 774 773 773 773 773 773 771 768 766 765 762 760 757 754 752 749 746 743 740 735 731 727 722 720 718 714 710 709 707 705 703 703 704 703 701 703 705 705
770 771 773 776 779 783 786 786 787 787 786 786 787 787 789 790 791 791 791 791 791 790 790 789 788 788 788 787 787 786 786 787 786 787 786 786 785 784 783 781 780 779 779 778 776 774 772 771 769 769 769 769 768 767 766 765 762 759 757 753 750 748 745 741 738 734 731 727 723 717 714 713 710 706 705 704 702 701 700 700 698 697 698 702 702
766 769 771 774 778 780 782 783 784 783 783 783 783 785 786 787 788 789 788 789 789 788 788 787 786 786 786 785 785 785 785 785 784 784 784 784 783 782 780 779 777 777 776 775 774 772 770 768 767 766 765 765 764 764 763 762 760 757 754 751 747 744 741 738 734 730 726 722 717 712 708 706 705 701 699 699 698 697 697 697 696 694 694 697 698
764 766 770 773 775 777 778 779 779 779 780 780 780 782 784 785 786 786 786 787 788 787 786 785 784 784 784 783 783 783 783 783 783 783 782 782 781 779 778 776 775 774 773 773 772 771 768 765 764 764 763 763 762 762 761 760 758 756 753 748 745 741 737 734 730 726 721 714 709 704 699 696 696 694 692 692 692 693 694 693 693 693 693 693 692
761 765 768 770 772 774 774 775 775 776 776 777 778 780 781 781 782 782 783 784 784 784 782 782 782 782 782 782 781 780 780 781 781 781 781 780 779 777 775 774 772 771 771 770 770 768 767 765 763 764 763 762 762 761 760 758 756 754 751 747 742 738 733 728 723 718 713 706 699 692 685 682 682 682 682 683 685 689 691 689 689 690 690 689 689
760 763 765 767 769 770 770 771 772 772 773 774 776 777 777 778 778 778 779 779 780 780 779 779 781 781 780 780 779 778 778 778 779 779 779 779 777 775 773 772 771 770 768 768 767 766 765 764 764 764 763 761 761 760 758 757 755 753 750 745 741 736 730 723 716 708 702 695 688 680 671 667 668 669 671 673 677 683 686 684 684 687 686 684 685
758 760 763 764 765 766 767 768 768 768 770 771 773 774 775 775 774 774 775 776 776 777 777 777 778 779 779 779 778 777 777 777 778 778 777 777 776 774 772 770 769 768 766 766 765 764 764 764 762 762 762 761 760 758 757 756 754 751 748 744 740 735 728 721 713 704 696 688 680 671 662 658 658 659 662 666 670 675 678 679 680 682 682 681 682
756 758 760 761 762 763 764 765 765 765 767 768 770 772 772 772 772 772 772 774 774 774 775 775 776 777 777 777 776 777 777 779 780 779 777 776 774 772 771 769 768 766 765 764 763 763 763 763 762 761 760 759 758 757 755 754 752 749 746 743 739 734 727 719 711 704 697 689 679 670 661 656 654 655 657 660 663 667 671 674 676 678 679 679 680
754 756 758 758 760 760 761 763 763 763 764 766 767 769 770 770 771 770 771 773 773 773 773 773 773 774 775 776 776 776 779 783 783 780 777 776 773 771 771 769 767 765 764 763 762 761 761 761 761 760 759 758 757 755 754 752 750 747 745 742 739 734 726 718 710 704 697 689 680 671 663 657 654 653 654 656 659 662 666 668 671 674 676 677 677
753 755 755 756 757 757 759 761 762 763 765 766 766 766 767 768 768 769 771 772 772 772 772 771 771 773 774 774 774 775 779 783 783 781 778 775 773 771 770 768 767 765 763 762 761 760 760 760 760 759 757 756 755 754 752 751 749 746 743 740 737 732 725 719 712 704 697 688 680 672 665 660 656 654 653 654 656 659 662 663 666 669 672 673 675
752 753 754 755 755 754 755 757 760 763 766 766 764 764 765 766 767 768 770 770 770 770 770 769 770 770 770 771 771 773 776 779 780 779 778 775 772 771 769 767 766 764 762 761 760 759 759 759 758 758 756 754 754 753 752 750 748 745 742 739 736 731 725 719 713 705 696 688 680 674 668 663 659 656 655 654 654 656 658 659 661 664 667 670 673
753 753 753 754 753 752 753 756 758 761 763 763 762 763 764 765 767 768 768 768 768 769 768 768 768 768 768 768 770 771 773 774 775 775 774 772 771 770 768 766 765 763 762 761 759 759 759 758 757 756 753 752 752 752 751 749 746 743 740 738 735 730 725 720 714 706 697 688 681 678 673 668 664 661 657 654 651 652 654 656 659 661 664 667 670
752 751 752 752 752 752 753 755 757 758 760 761 761 762 764 765 765 766 767 767 767 767 767 767 767 767 768 768 769 771 771 771 771 771 771 770 769 768 766 765 763 762 761 759 759 759 758 757 755 753 751 750 750 750 749 747 744 741 738 736 734 730 726 721 716 709 700 692 686 684 679 673 669 666 662 656 650 649 651 653 656 659 661 664 666
751 750 751 751 751 751 752 754 756 757 758 759 760 761 763 763 764 764 765 765 766 766 766 766 766 766 767 768 769 769 769 769 769 768 769 768 767 766 764 763 762 761 759 758 758 757 756 755 753 752 750 749 748 748 748 746 743 740 737 735 733 730 726 723 718 712 706 699 693 689 685 679 675 670 664 658 653 651 651 651 653 656 658 660 662
749 750 750 750 750 750 751 753 755 756 758 759 760 760 761 762 763 763 764 765 765 765 765 765 765 766 766 766 767 767 767 768 767 767 767 766 765 764 763 761 760 759 758 757 756 755 754 753 752 750 749 749 748 748 747 745 742 739 737 735 733 730 728 725 721 716 711 705 700 695 689 684 679 674 669 664 659 655 653 651 653 655 657 658 659
749 749 749 749 749 749 751 753 755 756 758 758 758 759 760 761 762 762 763 764 764 764 764 764 765 765 765 765 765 764 765 766 766 766 766 765 764 763 762 761 759 758 757 756 755 753 752 751 750 750 749 749 748 747 746 745 743 740 737 735 733 731 728 725 722 718 714 710 705 700 694 688 683 680 675 670 665 661 658 654 654 656 657 657 657
749 749 748 748 749 750 752 754 755 756 757 758 758 759 760 761 762 762 763 763 763 763 763 763 764 764 763 764 764 764 764 765 765 765 765 763 763 762 761 760 759 758 757 755 753 752 751 750 750 749 749 749 748 747 746 745 743 741 738 736 734 732 729 727 724 721 717 713 709 704 699 695 690 686 682 676 672 668 664 660 659 660 659 658 659
748 748 747 748 748 749 752 753 754 755 757 758 758 759 760 761 761 761 762 763 763 763 763 763 764 764 763 763 763 763 764 764 764 764 763 762 762 761 760 760 759 758 756 755 753 752 751 751 751 750 750 749 749 748 747 745 743 741 739 737 735 733 731 729 726 723 720 717 712 708 704 701 697 693 688 684 679 675 671 669 667 666 665 664 664
748 747 746 747 747 748 751 752 753 754 756 756 757 758 759 760 761 761 762 762 762 763 763 764 764 763 763 763 763 763 763 763 762 762 761 761 761 760 760 760 759 758 756 754 753 752 752 752 752 751 751 750 749 749 748 746 744 742 740 738 737 735 732 730 728 725 723 719 715 711 708 706 703 699 695 690 685 680 678 675 672 671 670 670 670
746 746 745 746 746 747 749 751 752 753 754 755 755 756 758 759 761 761 762 762 762 763 764 764 764 763 763 762 762 762 762 762 762 761 760 760 760 759 759 759 758 757 756 754 753 753 753 753 753 753 752 751 750 750 749 747 745 744 741 740 738 736 735 733 731 729 726 723 719 715 712 710 707 704 700 695 690 686 684 681 678 676 675 676 676
745 744 745 745 746 747 749 750 752 753 754 754 755 756 757 758 759 761 761 761 762 763 763 763 764 763 762 761 761 761 761 761 760 760 759 759 759 758 758 758 758 757 756 755 754 754 754 754 754 754 753 752 751 750 749 748 746 745 743 742 740 738 737 735 733 730 728 726 723 720 717 714 710 706 702 699 695 692 689 686 684 683 681 681 682
743 744 744 745 746 747 748 749 750 751 753 755 756 756 756 757 757 759 760 761 762 762 763 763 763 763 762 761 760 760 760 760 760 760 760 759 758 758 757 757 757 757 757 756 755 755 755 755 756 755 755 754 752 751 750 749 747 746 744 743 741 740 738 736 734 731 729 727 725 722 719 717 713 709 705 702 698 696 694 691 689 687 686 686 686
743 743 744 745 746 747 746 746 747 748 750 753 754 755 755 756 756 757 758 758 760 761 761 762 762 762 762 761 760 760 760 760 760 760 760 759 758 757 756 756 757 757 757 756 756 756 756 757 757 756 755 754 753 752 751 750 748 747 745 744 742 740 738 737 735 733 731 728 727 724 722 719 715 712 709 706 703 702 699 697 694 692 691 691 691
742 743 743 745 747 747 746 746 746 747 748 750 752 753 754 754 755 756 756 757 758 759 760 761 761 761 761 761 761 761 760 760 760 760 760 759 758 756 756 756 757 757 758 757 757 757 757 758 757 757 756 755 754 753 752 751 750 748 746 745 743 741 739 737 736 735 732 730 729 726 724 721 718 715 713 710 708 707 705 703 701 698 697 696 694
741 742 742 744 746 747 746 746 747 747 748 749 750 751 752 753 754 755 756 757 757 758 759 760 760 760 760 760 761 761 760 760 760 759 759 760 759 757 757 758 758 758 758 758 758 758 758 758 758 757 757 756 755 754 753 752 750 749 747 746 744 742 740 739 737 736 734 732 730 728 726 724 722 719 717 714 712 710 709 707 705 703 701 699 696
741 741 741 743 745 746 747 747 746 746 748 749 750 750 751 751 753 754 755 756 757 757 758 758 758 759 759 760 760 760 760 760 759 759 759 760 759 758 759 759 759 760 759 759 759 759 759 759 758 758 757 757 756 755 754 752 751 749 748 746 745 743 741 739 738 736 735 733 732 730 728 726 725 723 720 718 716 714 712 710 708 706 705 702 700
740 740 742 742 743 744 746 747 748 748 748 749 750 749 749 750 751 752 754 756 756 756 756 757 757 758 759 759 760 759 758 758 758 758 759 759 759 759 759 760 760 760 760 760 760 759 759 759 759 758 757 757 756 755 754 753 751 750 749 747 745 743 742 740 739 737 735 734 734 732 730 728 727 725 723 721 719 717 715 713 711 709 707 706 704
738 740 741 741 742 742 744 746 748 748 748 748 749 749 749 750 750 751 753 754 754 754 755 756 757 757 758 759 759 758 758 758 758 759 759 759 760 760 760 760 761 761 760 760 760 760 760 759 759 758 758 757 756 756 755 753 752 751 750 748 746 744 743 742 741 739 737 736 735 734 733 731 729 727 725 723 722 721 718 716 715 713 711 709 707
737 738 739 740 741 741 742 744 746 746 747 749 749 749 750 750 750 751 752 752 753 753 754 755 756 757 758 759 759 758 758 758 759 759 760 760 761 761 761 761 761 761 761 761 760 760 760 760 759 759 758 757 757 756 755 754 753 752 750 749 748 746 744 743 742 741 740 738 737 736 735 733 731 729 727 725 724 723 721 719 718 716 714 712 710
736 737 738 739 740 740 741 743 744 746 748 749 749 750 750 750 750 751 751 752 752 752 752 754 756 757 758 758 758 759 759 759 760 760 761 761 762 762 762 762 762 762 762 761 761 761 760 760 759 759 758 758 757 756 755 755 754 752 752 751 749 748 746 745 743 742 741 740 739 737 736 735 733 732 730 728 726 725 723 722 720 719 717 715 713
736 737 738 739 739 740 741 742 744 746 747 748 749 750 750 750 750 751 751 752 752 751 751 753 755 756 757 758 759 759 760 760 761 761 762 762 762 762 762 762 762 762 762 762 761 761 761 760 760 759 759 758 757 757 756 755 754 753 753 752 751 749 748 746 745 743 742 741 740 739 737 736 735 734 732 730 729 727 725 724 722 721 719 718 716
736 737 738 740 740 740 741 743 745 746 747 748 749 750 749 749 750 750 751 752 752 751 751 753 755 756 757 758 759 759 760 761 761 762 762 762 762 762 762 761 761 761 761 761 761 761 761 760 760 759 759 758 758 758 757 756 755 755 754 753 752 751 749 748 746 745 744 743 741 740 739 738 736 735 734 732 731 729 728 726 724 723 721 720 718
736 737 738 739 740 741 742 743 745 746 747 748 749 749 749 749 749 750 751 751 751 751 752 753 754 756 757 758 759 759 760 761 761 762 762 762 762 761 761 761 760 761 761 761 761 761 761 760 760 760 759 759 759 758 758 757 756 756 755 754 753 752 751 749 748 747 746 745 743 741 740 740 738 737 735 734 733 732 730 729 727 725 723 722 720
737 737 738 739 740 741 742 743 745 746 747 747 748 748 748 748 749 749 750 750 750 751 752 752 754 755 755 757 758 759 759 760 760 761 761 762 761 761 760 760 760 761 761 762 762 762 761 761 761 760 760 760 760 759 759 758 758 757 756 755 754 753 752 751 750 748 747 747 745 743 742 742 741 739 737 736 734 733 732 731 729 728 726 725 723
737 737 738 739 740 741 742 743 744 745 745 746 747 747 747 747 748 748 749 749 750 751 752 752 753 754 754 755 756 756 757 758 758 758 759 760 760 760 759 760 760 761 762 762 762 762 761 761 761 761 761 761 760 760 760 759 759 758 757 756 755 754 753 752 751 750 749 748 746 744 743 743 743 741 740 738 736 735 734 732 731 729 728 727 725
736 736 737 738 739 740 741 742 743 743 744 744 745 745 745 746 746 747 748 748 749 750 751 752 753 753 753 754 754 754 755 756 756 757 757 758 758 759 759 760 761 762 762 762 762 762 762 762 762 761 761 761 761 761 761 760 760 759 758 757 756 755 754 753 752 751 750 749 748 746 745 745 745 743 742 740 739 737 735 734 732 731 730 729 727
736 736 736 736 737 738 739 740 741 742 742 742 743 744 744 745 745 746 746 746 746 747 749 750 752 753 753 754 753 754 754 755 755 756 757 757 758 759 759 760 761 761 761 762 762 762 762 762 762 762 762 762 762 761 761 761 760 760 758 757 757 756 755 754 753 752 752 751 749 748 747 747 746 745 743 742 741 739 738 736 734 732 731 730 729
735 735 735 735 736 736 737 738 738 739 740 740 741 742 743 744 744 744 744 744 744 745 747 749 751 752 753 753 753 753 754 754 755 755 756 757 758 759 759 760 761 761 761 762 762 762 762 762 762 762 762 762 762 762 762 761 761 760 759 758 758 757 756 755 755 754 753 752 750 749 749 749 748 747 746 744 743 741 740 738 736 735 734 732 731
733 733 733 733 733 734 735 735 736 737 738 738 738 739 740 741 741 742 742 742 743 744 746 747 749 751 751 751 751 752 753 753 754 755 755 756 757 758 759 760 760 760 761 761 761 762 762 762 762 762 763 763 762 762 761 761 761 760 760 760 759 758 757 757 756 755 754 753 752 751 751 750 750 749 748 747 745 744 742 741 739 737 736 735 734